Flag for Germany Weather past 2 weeks in Wertheim, Baden-Württemberg, Germany

Now
61 °F

Passing clouds.


Feels Like: 61 °F
Forecast: 61 / 72 °F
Wind: 1 mph from North

Location: Wuerzburg

Current Time: Aug 2, 2014 at 3:22:03 AM

Latest Report: Aug 2, 2014 at 3:00 AM


Visibility: 19 mi

Pressure: 29.80 "Hg

Humidity: 80%

Dew point: 54 °F

Location of WertheimLocation

Historic Weather in Wertheim — Graph

°F

Wertheim temperature yesterday

Maximum temperature yesterday: 79 °F (at 3:00 PM)
Minimum temperature yesterday: 57 °F (at 6:00 AM)
Average temperature yesterday: 69 °F

Past Weeks' High & Low Weather Summary

 TemperatureHumidityPressure
High90 °F (Jul 19, 5:00 PM)98% (Jul 27, 6:00 AM)30.12 "Hg (Jul 27, 6:00 AM)
Low57 °F (Aug 1, 6:00 AM)28% (Jul 19, 4:00 PM)29.68 "Hg (Jul 29, 3:00 PM)
Average71 °F68%29.88 "Hg
* Reported Jul 18 2:00 AM — Aug 2 2:00 AM, Wertheim, Weather by CustomWeather, © 2014

Note: Actual official high and low records may vary slightly from our data, if they occured in-between our weather recording intervals... More about our weather records

Advertising

Wertheim weather history for previous 24 hours

 ConditionsComfort  
Time TempWeatherWind HumidityBarometerVisibility
2:00 AM
Aug 2
62 °FPassing clouds.1 mph77%29.81 "Hg19 mi
1:00 AM63 °FPassing clouds.1 mph74%29.82 "Hg19 mi
12:00 AM65 °FClear.1 mph69%29.82 "Hg25 mi
11:00 PM
Aug 1
66 °FPassing clouds.1 mph67%29.82 "Hg28 mi
10:00 PM69 °FPassing clouds.1 mph58%29.82 "Hg28 mi
9:00 PM72 °FScattered clouds.3 mph46%29.81 "Hg28 mi
8:00 PM76 °FPartly sunny.3 mph43%29.80 "Hg28 mi
7:00 PM76 °FOvercast.3 mph41%29.80 "Hg28 mi
6:00 PM77 °FOvercast.2 mph40%29.81 "Hg28 mi
5:00 PM78 °FOvercast.2 mph39%29.82 "Hg25 mi
4:00 PM79 °FOvercast.5 mph39%29.82 "Hg25 mi
3:00 PM79 °FOvercast.3 mph41%29.83 "Hg25 mi
2:00 PM77 °FOvercast.3 mph45%29.84 "Hg22 mi
1:00 PM76 °FOvercast.5 mph44%29.85 "Hg22 mi
12:00 PM76 °FOvercast.5 mph52%29.87 "Hg22 mi
11:00 AM73 °FOvercast.3 mph61%29.89 "Hg19 mi
10:00 AM70 °FPartly sunny.2 mph68%29.90 "Hg15 mi
9:00 AM66 °FPartly sunny.1 mph78%29.91 "Hg11 mi
8:00 AM63 °FScattered clouds.1 mph89%29.92 "Hg12 mi
7:00 AM58 °FPassing clouds.1 mph95%29.92 "Hg9 mi
6:00 AM57 °FPassing clouds.1 mph94%29.93 "Hg7 mi
5:00 AM58 °FPassing clouds.1 mph94%29.93 "Hg10 mi
4:00 AM58 °FClear.No wind93%29.93 "Hg9 mi
3:00 AM60 °FClear.No wind92%29.94 "Hg9 mi
Weather by CustomWeather, © 2014

See weather overviewHow to use our weather pages